Regional Weather Roundup
Issued by NWS

Home | Current Version | Previous Version | Text Only | Print | Product List | Glossary Off
Versions: 1 2 3 4 5 6 7 8 9 10 11 12 13 14 15 16 17 18 19 20 21 22 23 24 25 26 27 28 29 30 31 32 33 34 35 36 37 38 39 40 41 42 43 44 45 46 47 48 49 50

000
ASUS43 KOAX 020602
RWRNE

WEATHER ROUNDUP FOR NEBRASKA
NATIONAL WEATHER SERVICE OMAHA NE
100 AM CDT SAT AUG 02 2014

NOTES: SATELLITE DATA IS BEING USED TO AUGMENT CLOUD COVER ABOVE
       12000 FEET.
       "FAIR" INDICATES FEW OR NO CLOUDS BELOW 12,000 FEET WITH NO
       SIGNIFICANT WEATHER AND/OR OBSTRUCTIONS TO VISIBILITY.

  * THESE STATIONS DO NOT REPORT WEATHER SUCH AS RAIN...SNOW OR FOG.

NEZ001>004-019>022-054>056-020700-
NEBRASKA PANHANDLE

CITY           SKY/WX    TMP DP  RH WIND       PRES   REMARKS
SCOTTSBLUFF    CLEAR     62  55  77 E5        30.16R
6HR MIN TEMP:  62; 6HR MAX TEMP:  89;

ALLIANCE       PTCLDY    68  45  43 SW5       30.15S
6HR MIN TEMP:  68; 6HR MAX TEMP:  89;

CHADRON        PTCLDY    58  46  64 SW5       30.10S
6HR MIN TEMP:  58; 6HR MAX TEMP:  87;

KIMBALL        CLEAR     61  51  69 S5        30.22S
SIDNEY         CLEAR     61  51  70 SW10      30.21S
6HR MIN TEMP:  57; 6HR MAX TEMP:  87;

$$

NEZ057>060-069>072-079>082-020700-
SOUTHWEST NEBRASKA

CITY           SKY/WX    TMP DP  RH WIND       PRES   REMARKS
NORTH PLATTE   PTCLDY    62  59  90 SE7       30.14S
6HR MIN TEMP:  62; 6HR MAX TEMP:  82;

IMPERIAL       CLEAR     64  54  69 SE8       30.17S
6HR MIN TEMP:  63; 6HR MAX TEMP:  88;

LEXINGTON      CLEAR     67  60  77 SE7       30.14F
MCCOOK         CLEAR     66  57  72 S6        30.16R
6HR MIN TEMP:  66; 6HR MAX TEMP:  87;

OGALLALA       CLEAR     68  53  59 S8        30.15S
$$

NEZ005>010-023>029-035>040-094-020700-
NORTH CENTRAL NEBRASKA

CITY           SKY/WX    TMP DP  RH WIND       PRES   REMARKS
VALENTINE      LGT RAIN  69  62  78 SE13      30.12R
6HR MIN TEMP:  69; 6HR MAX TEMP:  92; 6HR PCP:  0.29;

BROKEN BOW     PTCLDY    63  57  81 SE7       30.13F
6HR MIN TEMP:  61; 6HR MAX TEMP:  85;

O`NEILL        CLOUDY    66  63  89 W5        30.19F
ORD            PTCLDY    62  58  86 CALM      30.13R
6HR MIN TEMP:  61; 6HR MAX TEMP:  82;

THEDFORD       MOCLDY    70  60  68 S8        30.14F
$$

NEZ041-046>049-061>064-073>077-083>087-020700-
SOUTH CENTRAL NEBRASKA

CITY           SKY/WX    TMP DP  RH WIND       PRES   REMARKS
GRAND ISLAND   CLEAR     66  61  84 SE6       30.14R
6HR MIN TEMP:  65; 6HR MAX TEMP:  81;

AURORA         CLEAR     64  63  95 SE5       30.13S
HASTINGS       CLEAR     68  60  75 E7        30.13S
6HR MIN TEMP:  63; 6HR MAX TEMP:  80;

HEBRON         CLEAR     64  59  85 CALM      30.12S
HOLDREGE       CLEAR     60  56  88 E8        30.14F
KEARNEY *      CLEAR     63  57  82 S7        30.14S
YORK           MOCLDY    64  63  94 SE5       30.13F
$$

NEZ011>018-030>034-042>045-020700-
NORTHEAST NEBRASKA

CITY           SKY/WX    TMP DP  RH WIND       PRES   REMARKS
NORFOLK        MOCLDY    64  60  87 SE5       30.13R
6HR MIN TEMP:  63; 6HR MAX TEMP:  81;

ALBION         MOCLDY    64  60  87 S3        30.13S
BLAIR          CLEAR     68  60  76 E5        30.12F
COLUMBUS *     CLEAR     63  57  82 CALM      30.13S
FREMONT        CLEAR     67  63  88 CALM      30.13S
TEKAMAH        CLEAR     62  58  86 CALM      30.12S
6HR MIN TEMP:  62; 6HR MAX TEMP:  83;

WAYNE          MOCLDY    64  61  91 CALM      30.13R
$$

NEZ050>053-065>068-078-088>093-020700-
SOUTHEAST NEBRASKA

CITY           SKY/WX    TMP DP  RH WIND       PRES   REMARKS
LINCOLN        CLEAR     65  59  81 N5        30.13S
6HR MIN TEMP:  63; 6HR MAX TEMP:  82;

OMAHA EPPLEY   CLEAR     67  62  84 CALM      30.12S
6HR MIN TEMP:  65; 6HR MAX TEMP:  82;

BEATRICE       CLOUDY    68  62  81 NE5       30.12S
FALLS CITY     PTCLDY    67  64  90 NE3       30.11R
6HR MIN TEMP:  67; 6HR MAX TEMP:  82;

NEBRASKA CITY  CLEAR     68  63  82 CALM      30.12S
PLATTSMOUTH    CLEAR     65  61  87 CALM      30.12F
$$

NEZ044-045-051>053-067-020700-
OMAHA AREA

CITY           SKY/WX    TMP DP  RH WIND       PRES   REMARKS
OMAHA EPPLEY   CLEAR     67  62  84 CALM      30.12S
6HR MIN TEMP:  65; 6HR MAX TEMP:  82;

BLAIR          CLEAR     68  60  76 E5        30.12F
FREMONT        CLEAR     67  63  88 CALM      30.13S
MILLARD        CLEAR     66  64  91 CALM      30.11S
OFFUTT AFB     CLEAR     61  61 100 E3        30.11S
PLATTSMOUTH    CLEAR     65  61  87 CALM      30.12F
WAHOO          FAIR      65  62  89 CALM      30.12S
$$


USA.gov is the U.S. government's official web portal to all federal, state and local government web resources and services.